DHLC
01/02/90,359.69,351.98,359.69
01/03/90,360.59,357.89,358.76
01/04/90,358.74,352.89,355.67
01/05/90,355.67,351.35,352.20
01/08/90,354.24,350.54,353.79
01/09/90,354.17,349.61,349.62
01/10/90,349.62,344.32,347.31
01/11/90,350.14,347.35,348.53
01/12/90,348.53,339.49,339.94
01/15/90,339.94,336.57,337.00
01/16/90,340.75,333.37,340.75
01/17/90,342.01,336.26,337.40
01/18/90,338.38,333.98,338.19
01/19/90,340.48,338.19,339.15
01/22/90,339.96,330.28,330.38
01/23/90,332.76,328.67,331.61
01/24/90,331.71,324.17,330.26
01/25/90,332.33,325.33,326.08
01/26/90,328.58,321.44,325.80
01/29/90,327.31,321.79,325.20
01/30/90,325.73,319.83,322.98
01/31/90,329.08,322.98,329.08
02/01/90,329.86,327.76,328.79
02/02/90,332.10,328.09,330.92
02/05/90,332.16,330.45,331.85
02/06/90,331.86,328.20,329.68
02/07/90,333.76,326.55,333.75
02/08/90,336.09,332.00,332.96
02/09/90,334.60,332.41,333.62
02/12/90,333.62,329.97,330.08
02/13/90,331.61,327.92,331.02
02/14/90,333.20,330.64,332.01
02/15/90,335.21,331.61,334.89
02/16/90,335.64,332.42,332.72
02/20/90,332.72,326.26,327.99
02/21/90,328.17,324.47,327.67
02/22/90,330.98,325.70,325.70
02/23/90,326.15,322.10,324.15
02/26/90,328.67,323.98,328.67
02/27/90,331.94,328.47,330.26
02/28/90,333.48,330.16,331.89
03/01/90,334.40,331.08,332.74
03/02/90,335.54,332.72,335.54
03/05/90,336.38,333.49,333.74
03/06/90,337.93,333.57,337.93
03/07/90,338.84,336.33,336.95
03/08/90,340.66,336.98,340.27
03/09/90,340.27,336.84,337.93
03/12/90,339.08,336.14,338.67
03/13/90,338.66,335.36,336.00
03/14/90,337.63,334.93,336.89
03/15/90,338.91,336.89,338.07
03/16/90,341.91,338.07,341.91
03/19/90,343.60,339.12,343.53
03/20/90,344.49,340.87,341.57
03/21/90,342.34,339.56,339.74
03/22/90,339.77,333.62,335.69
03/23/90,337.58,335.69,337.22
03/26/90,339.74,337.22,337.63
03/27/90,341.50,337.03,341.50
03/28/90,342.58,340.60,342.00
03/29/90,342.07,339.77,340.79
03/30/90,341.41,338.21,339.94
04/02/90,339.93,336.33,338.70
04/03/90,343.76,338.74,343.64
04/04/90,344.12,340.40,341.09
04/05/90,342.85,340.63,340.73
04/06/90,341.73,338.94,340.08
04/09/90,341.83,339.88,341.37
04/10/90,342.41,340.62,342.07
04/11/90,343.00,341.26,341.92
04/12/90,344.79,341.91,344.34
04/16/90,347.30,344.10,344.74
04/17/90,345.19,342.06,344.68
04/18/90,345.33,340.11,340.72
04/19/90,340.69,337.59,338.09
04/20/90,338.52,333.41,335.12
04/23/90,335.12,330.09,331.05
04/24/90,332.97,329.71,330.36
04/25/90,332.74,330.36,332.03
04/26/90,333.76,330.67,332.92
04/27/90,333.57,328.71,329.11
04/30/90,331.31,327.76,330.80
05/01/90,332.83,330.80,332.25
05/02/90,334.48,332.15,334.48
05/03/90,337.02,334.51,335.57
05/04/90,338.46,335.17,338.39
05/07/90,341.07,338.11,340.53
05/08/90,342.03,340.17,342.01
05/09/90,343.08,340.90,342.86
05/10/90,344.98,342.77,343.82
05/11/90,352.31,343.84,352.00
05/14/90,358.41,351.95,354.75
05/15/90,355.09,352.84,354.28
05/16/90,354.68,351.95,354.00
05/17/90,356.92,354.00,354.47
05/18/90,354.64,352.52,354.64
05/21/90,359.01,353.78,358.00
05/22/90,360.50,356.09,358.43
05/23/90,359.29,356.99,359.29
05/24/90,359.56,357.87,358.41
05/25/90,358.40,354.32,354.58
05/29/90,360.65,354.56,360.65
05/30/90,362.26,360.00,360.86
05/31/90,361.84,360.23,361.23
06/01/90,363.52,361.21,363.16
06/04/90,367.85,362.43,367.40
06/05/90,368.78,365.49,366.64
06/06/90,366.64,364.42,364.96
06/07/90,365.92,361.60,363.15
06/08/90,363.49,357.68,358.71
06/11/90,361.63,357.70,361.63
06/12/90,367.27,361.15,366.25
06/13/90,367.09,364.51,364.90
06/14/90,364.90,361.64,362.90
06/15/90,363.14,360.71,362.91
06/18/90,362.91,356.88,356.88
06/19/90,358.90,356.18,358.47
06/20/90,359.91,357.00,359.10
06/21/90,360.88,357.63,360.47
06/22/90,363.20,355.31,355.43
06/25/90,356.41,351.91,352.31
06/26/90,356.09,351.85,352.06
06/27/90,355.89,351.23,355.14
06/28/90,357.63,355.16,357.63
06/29/90,359.09,357.30,358.02
07/02/90,359.58,357.54,359.54
07/03/90,360.73,359.44,360.16
07/05/90,360.16,354.86,355.68
07/06/90,359.02,354.64,358.42
07/09/90,360.05,358.11,359.52
07/10/90,359.74,356.41,356.49
07/11/90,361.23,356.49,361.23
07/12/90,365.46,360.57,365.44
07/13/90,369.68,365.44,367.31
07/16/90,369.78,367.31,368.95
07/17/90,369.40,364.99,367.52
07/18/90,367.52,362.95,364.22
07/19/90,365.32,361.29,365.32
07/20/90,366.64,361.58,361.61
07/23/90,361.61,350.09,355.31
07/24/90,356.09,351.46,355.79
07/25/90,359.52,354.80,357.09
07/26/90,357.47,353.95,355.91
07/27/90,355.94,352.14,353.44
07/30/90,355.55,351.15,355.55
07/31/90,357.54,353.91,356.15
08/01/90,357.35,353.82,355.52
08/02/90,355.51,349.73,351.48
08/03/90,351.48,338.20,344.86
08/06/90,344.75,333.27,334.43
08/07/90,338.63,332.22,334.83
08/08/90,339.21,334.83,338.35
08/09/90,340.56,337.56,339.94
08/10/90,339.94,334.22,335.52
08/13/90,338.88,332.02,338.84
08/14/90,340.96,337.19,339.39
08/15/90,341.92,339.38,340.06
08/16/90,340.00,332.39,332.39
08/17/90,332.39,324.63,327.83
08/20/90,329.90,327.07,328.51
08/21/90,328.51,318.78,321.86
08/22/90,324.15,316.55,316.55
08/23/90,316.55,306.56,307.06
08/24/90,311.65,306.18,311.51
08/27/90,323.11,311.55,321.44
08/28/90,322.20,320.25,321.34
08/29/90,325.83,320.87,324.19
08/30/90,324.57,317.82,318.71
08/31/90,322.57,316.59,322.56
09/04/90,323.09,319.11,323.09
09/05/90,324.52,320.99,324.39
09/06/90,324.39,319.37,320.46
09/07/90,324.18,319.71,323.40
09/10/90,326.53,320.31,321.63
09/11/90,322.18,319.60,321.04
09/12/90,322.55,319.60,322.54
09/13/90,322.51,318.02,318.65
09/14/90,318.65,314.76,316.83
09/17/90,318.05,315.21,317.77
09/18/90,318.85,314.27,318.60
09/19/90,319.35,316.25,316.60
09/20/90,316.59,310.55,311.48
09/21/90,312.17,307.98,311.32
09/24/90,311.32,303.58,304.59
09/25/90,308.27,304.23,308.26
09/26/90,308.28,303.05,305.06
09/27/90,307.47,299.10,300.97
09/28/90,306.05,295.98,306.05
10/01/90,314.94,306.10,314.94
10/02/90,319.69,314.94,315.21
10/03/90,316.26,310.70,311.40
10/04/90,313.40,308.59,312.69
10/05/90,314.79,305.76,311.50
10/08/90,315.03,311.50,313.48
10/09/90,313.46,305.09,305.10
10/10/90,306.43,299.21,300.39
10/11/90,301.45,294.51,295.46
10/12/90,301.68,295.22,300.03
10/15/90,304.79,296.41,303.23
10/16/90,304.34,298.12,298.92
10/17/90,301.50,297.79,298.76
10/18/90,305.74,298.75,305.74
10/19/90,312.48,305.74,312.48
10/22/90,315.83,310.47,314.76
10/23/90,315.06,312.06,312.36
10/24/90,313.51,310.74,312.60
10/25/90,313.71,309.70,310.78
10/26/90,310.17,304.71,304.71
10/29/90,307.41,300.69,301.88
10/30/90,304.36,299.44,304.06
10/31/90,305.70,302.30,304.00
11/01/90,307.27,301.61,307.02
11/02/90,311.94,306.88,311.85
11/05/90,314.61,311.41,314.59
11/06/90,314.76,311.43,311.62
11/07/90,311.62,305.79,306.01
11/08/90,309.77,305.03,307.61
11/09/90,313.78,307.61,313.74
11/12/90,319.77,313.73,319.48
11/13/90,319.48,317.26,317.67
11/14/90,321.70,317.23,320.40
11/15/90,320.40,316.13,317.02
11/16/90,318.80,314.99,317.12
11/19/90,319.39,317.15,319.34
11/20/90,319.34,315.31,315.31
11/21/90,316.15,312.42,316.03
11/23/90,317.30,315.06,315.10
11/26/90,316.51,311.48,316.51
11/27/90,318.69,315.80,318.10
11/28/90,319.96,317.62,317.95
11/29/90,317.95,315.03,316.42
11/30/90,323.02,315.42,322.22
12/03/90,324.90,322.23,324.10
12/04/90,326.77,321.97,326.35
12/05/90,329.92,325.66,329.92
12/06/90,333.98,328.37,329.07
12/07/90,329.39,326.39,327.75
12/10/90,328.97,326.15,328.89
12/11/90,328.88,325.65,326.44
12/12/90,330.36,326.44,330.19
12/13/90,330.58,328.77,329.34
12/14/90,329.34,325.16,326.82
12/17/90,326.82,324.46,326.02
12/18/90,330.43,325.75,330.05
12/19/90,330.80,329.39,330.20
12/20/90,330.74,326.94,330.12
12/21/90,332.47,330.12,331.75
12/24/90,331.75,329.16,329.90
12/26/90,331.69,329.89,330.85
12/27/90,331.04,328.23,328.29
12/28/90,328.72,327.24,328.72
12/31/90,330.23,327.50,330.23
01/02/91,330.75,326.45,326.45
01/03/91,326.53,321.90,321.91
01/04/91,322.35,318.87,321.00
01/07/91,320.97,315.44,315.44
01/08/91,316.97,313.79,314.90
01/09/91,320.73,310.93,311.49
01/10/91,314.77,311.51,314.53
01/11/91,315.24,313.59,315.23
01/14/91,315.23,309.35,312.49
01/15/91,313.73,311.84,313.73
01/16/91,316.94,312.94,316.17
01/17/91,327.97,316.17,327.97
01/18/91,332.23,327.08,332.23
01/21/91,332.23,328.87,331.06
01/22/91,331.26,327.83,328.31
01/23/91,331.04,327.93,330.21
01/24/91,335.83,330.19,334.78
01/25/91,336.92,334.20,336.07
01/28/91,337.41,335.81,336.03
01/29/91,336.03,334.26,335.84
01/30/91,340.91,335.69,340.91
01/31/91,343.93,340.47,343.93
02/01/91,344.90,340.37,343.05
02/04/91,348.71,342.96,348.34
02/05/91,351.84,347.21,351.26
02/06/91,358.07,349.58,358.07
02/07/91,363.43,355.53,356.52
02/08/91,359.35,356.02,359.35
02/11/91,368.58,359.32,368.58
02/12/91,370.54,365.50,365.50
02/13/91,369.49,364.64,369.02
02/14/91,370.26,362.77,364.22
02/15/91,369.49,364.22,369.06
02/19/91,370.11,367.01,369.39
02/20/91,369.37,364.38,365.14
02/21/91,366.79,364.50,364.97
02/22/91,370.96,364.23,365.65
02/25/91,370.32,365.12,367.26
02/26/91,367.26,362.19,362.81
02/27/91,368.38,362.81,367.74
02/28/91,369.91,365.95,367.07
03/01/91,370.47,363.73,370.47
03/04/91,371.99,369.07,369.33
03/05/91,377.89,369.33,376.72
03/06/91,379.66,375.02,376.17
03/07/91,377.49,375.58,375.91
03/08/91,378.69,374.43,374.95
03/11/91,375.10,372.52,372.96
03/12/91,374.35,369.55,370.03
03/13/91,374.65,370.03,374.57
03/14/91,378.28,371.76,373.50
03/15/91,374.58,370.21,373.59
03/18/91,374.09,369.46,372.11
03/19/91,372.11,366.54,366.59
03/20/91,368.85,365.80,367.92
03/21/91,371.01,366.51,366.58
03/22/91,368.22,365.58,367.48
03/25/91,371.31,367.46,369.84
03/26/91,376.30,369.37,376.30
03/27/91,378.48,374.73,375.35
03/28/91,376.60,374.40,375.22
04/01/91,375.22,370.27,371.30
04/02/91,379.50,371.30,379.50
04/03/91,381.56,378.49,378.94
04/04/91,381.88,377.05,379.77
04/05/91,381.12,374.15,375.38
04/08/91,378.76,374.69,378.66
04/09/91,379.02,373.11,373.56
04/10/91,374.83,371.21,373.15
04/11/91,379.53,374.18,377.63
04/12/91,381.07,376.89,380.40
04/15/91,382.32,378.78,381.19
04/16/91,387.62,379.64,387.62
04/17/91,391.26,387.30,390.46
04/18/91,390.97,388.13,388.46
04/19/91,388.46,383.90,384.20
04/22/91,384.19,380.16,380.95
04/23/91,383.55,379.67,381.74
04/24/91,383.02,379.99,382.76
04/25/91,382.89,378.43,379.25
04/26/91,380.11,376.77,379.02
04/29/91,380.96,373.66,373.66
04/30/91,377.86,373.01,375.34
05/01/91,380.46,375.27,380.29
05/02/91,382.14,379.82,380.52
05/03/91,381.00,378.82,380.80
05/06/91,380.78,377.86,380.08
05/07/91,380.91,377.31,377.32
05/08/91,379.26,376.21,378.51
05/09/91,383.56,378.51,383.25
05/10/91,383.91,375.61,375.74
05/13/91,377.05,374.62,376.76
05/14/91,376.76,370.82,371.62
05/15/91,372.47,365.83,368.56
05/16/91,372.51,368.57,372.19
05/17/91,373.01,369.44,372.39
05/20/91,373.65,371.26,372.28
05/21/91,376.66,372.28,375.35
05/22/91,376.50,374.40,376.19
05/23/91,378.07,373.55,374.96
05/24/91,378.08,375.04,377.49
05/28/91,382.10,377.12,381.94
05/29/91,383.66,381.37,382.80
05/30/91,388.17,382.50,386.96
05/31/91,389.85,385.01,389.83
06/03/91,389.81,386.97,388.06
06/04/91,388.06,385.14,387.74
06/05/91,388.23,384.45,385.10
06/06/91,385.85,383.13,383.63
06/07/91,383.63,378.76,379.43
06/10/91,379.75,377.95,378.57
06/11/91,381.63,378.57,381.05
06/12/91,381.05,374.46,376.65
06/13/91,377.90,376.08,377.63
06/14/91,382.30,377.63,382.29
06/17/91,382.31,380.13,380.13
06/18/91,381.83,377.99,378.59
06/19/91,378.57,374.36,375.09
06/20/91,376.29,373.87,375.42
06/21/91,377.75,375.33,375.75
06/24/91,377.74,370.73,370.94
06/25/91,372.62,369.56,370.65
06/26/91,372.73,368.34,371.59
06/27/91,374.40,371.59,374.40
06/28/91,374.40,367.98,371.16
07/01/91,377.92,371.18,377.92
07/02/91,377.93,376.62,377.47
07/03/91,377.47,372.09,373.33
07/05/91,375.51,372.17,374.08
07/08/91,377.94,370.92,377.94
07/09/91,378.58,375.37,376.11
07/10/91,380.35,375.20,375.74
07/11/91,377.68,375.51,376.97
07/12/91,381.41,375.79,380.25
07/15/91,383.00,380.24,382.39
07/16/91,382.94,380.80,381.54
07/17/91,382.86,381.13,381.18
07/18/91,385.37,381.18,385.37
07/19/91,385.83,383.65,384.22
07/22/91,384.55,381.84,382.88
07/23/91,384.86,379.39,379.42
07/24/91,380.46,378.29,378.64
07/25/91,381.13,378.15,380.96
07/26/91,381.76,379.81,380.93
07/29/91,383.15,380.45,383.15
07/30/91,386.92,383.15,386.69
07/31/91,387.81,386.19,387.81
08/01/91,387.95,386.48,387.12
08/02/91,389.56,386.05,387.18
08/05/91,387.17,384.48,385.06
08/06/91,390.80,384.29,390.62
08/07/91,391.59,389.86,390.56
08/08/91,391.80,388.15,389.32
08/09/91,389.89,387.04,387.12
08/12/91,388.17,385.90,388.02
08/13/91,392.12,388.02,389.62
08/14/91,391.85,389.13,389.90
08/15/91,391.92,390.29,390.33
08/16/91,390.41,382.59,385.58
08/19/91,385.58,374.09,376.47
08/20/91,380.35,376.47,379.44
08/21/91,390.59,379.43,390.59
08/22/91,391.98,390.21,391.33
08/23/91,395.34,390.69,394.17
08/26/91,394.39,392.75,393.85
08/27/91,393.87,391.77,393.06
08/28/91,396.64,393.03,396.64
08/29/91,396.82,395.14,396.47
08/30/91,396.47,393.60,395.43
09/03/91,397.62,392.10,392.15
09/04/91,392.62,388.68,389.97
09/05/91,390.97,388.49,389.14
09/06/91,390.71,387.36,389.10
09/09/91,389.34,387.88,388.57
09/10/91,388.63,383.78,384.56
09/11/91,385.60,383.59,385.09
09/12/91,387.34,385.09,387.34
09/13/91,387.95,382.85,383.59
09/16/91,385.79,382.77,385.78
09/17/91,387.13,384.97,385.50
09/18/91,386.94,384.28,386.94
09/19/91,389.42,386.27,387.56
09/20/91,388.82,386.49,387.92
09/23/91,388.55,385.76,385.92
09/24/91,388.13,384.46,387.71
09/25/91,388.25,385.99,386.88
09/26/91,388.39,385.30,386.49
09/27/91,389.09,383.87,385.90
09/30/91,388.29,384.32,387.86
10/01/91,389.56,387.86,389.20
10/02/91,390.03,387.62,388.26
10/03/91,388.23,384.47,384.47
10/04/91,385.19,381.24,381.25
10/07/91,381.27,379.07,379.50
10/08/91,381.23,379.18,380.67
10/09/91,380.57,376.35,376.80
10/10/91,380.55,376.11,380.55
10/11/91,381.46,379.90,381.43
10/14/91,386.47,381.45,386.47
10/15/91,391.50,385.95,391.01
10/16/91,393.29,390.14,392.80
10/17/91,393.81,390.32,391.92
10/18/91,392.80,391.77,392.50
10/21/91,392.49,388.96,390.02
10/22/91,391.20,387.40,387.83
10/23/91,389.08,386.52,387.94
10/24/91,388.32,383.45,385.07
10/25/91,386.13,382.97,384.19
10/28/91,389.52,384.27,389.52
10/29/91,391.70,386.88,391.48
10/30/91,393.11,390.78,392.96
10/31/91,392.96,391.58,392.45
11/01/91,395.10,389.67,391.28
11/04/91,391.29,388.09,390.28
11/05/91,392.17,388.19,388.71
11/06/91,389.97,387.58,389.97
11/07/91,393.72,389.97,393.72
11/08/91,396.43,392.42,392.89
11/11/91,393.57,392.32,393.12
11/12/91,397.13,393.12,396.74
11/13/91,397.42,394.01,397.42
11/14/91,398.22,395.85,397.15
11/15/91,397.16,382.62,382.62
11/18/91,385.40,379.70,385.25
11/19/91,385.24,374.90,379.43
11/20/91,381.51,377.84,378.53
11/21/91,381.12,377.41,380.06
11/22/91,380.05,374.52,376.14
11/25/91,377.07,373.96,375.34
11/26/91,378.29,371.63,377.96
11/27/91,378.11,375.98,376.55
11/29/91,376.55,374.65,375.22
12/02/91,381.40,371.36,381.40
12/03/91,381.48,379.92,380.96
12/04/91,381.51,378.07,380.07
12/05/91,380.07,376.58,377.40
12/06/91,382.39,375.41,379.10
12/09/91,381.42,377.67,378.26
12/10/91,379.57,376.64,377.92
12/11/91,379.42,374.78,377.70
12/12/91,381.62,377.70,381.54
12/13/91,385.04,381.55,384.47
12/16/91,385.84,384.37,384.46
12/17/91,385.05,382.60,382.74
12/18/91,383.51,380.88,383.48
12/19/91,383.48,380.64,382.52
12/20/91,388.24,382.52,387.04
12/23/91,397.44,386.96,396.82
12/24/91,401.79,396.82,399.33
12/26/91,404.92,399.31,404.84
12/27/91,406.58,404.59,406.46
12/30/91,415.14,406.49,415.14
12/31/91,418.32,412.73,417.09
01/02/92,417.27,411.04,417.26
01/03/92,419.79,416.16,419.34
01/06/92,419.44,416.92,417.96
01/07/92,417.96,415.20,417.40
01/08/92,420.23,415.02,418.10
01/09/92,420.50,415.85,417.61
01/10/92,417.62,413.31,415.10
01/13/92,415.36,413.54,414.34
01/14/92,420.44,414.32,420.44
01/15/92,421.18,418.79,420.77
01/16/92,420.85,415.37,418.21
01/17/92,419.45,416.00,418.86
01/20/92,418.86,415.80,416.36
01/21/92,416.39,411.32,412.64
01/22/92,418.13,412.49,418.13
01/23/92,419.78,414.36,414.96
01/24/92,417.27,414.29,415.48
01/27/92,416.84,414.48,414.99
01/28/92,416.41,414.54,414.96
01/29/92,416.41,410.34,410.34
01/30/92,412.17,409.26,411.62
01/31/92,412.63,408.64,408.78
02/03/92,409.95,407.45,409.53
02/04/92,413.85,409.28,413.85
02/05/92,416.17,413.18,413.84
02/06/92,414.55,411.93,413.82
02/07/92,415.29,408.04,411.09
02/10/92,413.77,411.07,413.77
02/11/92,414.38,412.24,413.76
02/12/92,418.08,413.36,417.13
02/13/92,417.77,412.07,413.69
02/14/92,413.84,411.20,412.48
02/18/92,413.27,406.34,407.38
02/19/92,408.70,406.54,408.26
02/20/92,413.89,408.26,413.88
02/21/92,414.26,409.72,411.43
02/24/92,412.94,410.34,412.27
02/25/92,412.27,408.82,410.45
02/26/92,415.35,410.48,415.35
02/27/92,415.99,413.47,413.86
02/28/92,416.06,411.80,412.70
03/02/92,413.74,411.52,412.45
03/03/92,413.78,411.88,412.85
03/04/92,413.27,409.33,409.33
03/05/92,409.33,405.42,406.51
03/06/92,407.51,403.65,404.44
03/09/92,405.64,404.25,405.21
03/10/92,409.16,405.21,406.89
03/11/92,407.02,402.64,404.03
03/12/92,404.72,401.94,403.89
03/13/92,406.69,403.92,405.84
03/16/92,406.40,403.55,406.39
03/17/92,409.72,406.39,409.58
03/18/92,410.84,408.23,409.15
03/19/92,410.57,409.12,409.80
03/20/92,411.30,408.53,411.25
03/23/92,411.29,408.87,409.91
03/24/92,411.43,407.99,408.88
03/25/92,409.87,407.52,407.52
03/26/92,409.44,406.75,407.86
03/27/92,407.86,402.87,403.50
03/30/92,404.30,402.97,403.00
03/31/92,405.21,402.22,403.69
04/01/92,404.50,400.75,404.23
04/02/92,404.63,399.28,400.50
04/03/92,401.59,398.21,401.55
04/06/92,405.93,401.54,405.59
04/07/92,405.75,397.97,398.06
04/08/92,398.05,392.41,394.50
04/09/92,401.04,394.50,400.64
04/10/92,405.12,400.59,404.29
04/13/92,405.09,403.90,404.99
04/14/92,413.86,406.08,412.39
04/15/92,416.27,412.39,416.27
04/16/92,416.28,413.40,416.04
04/20/92,416.05,407.93,410.18
04/21/92,411.09,408.20,410.26
04/22/92,411.30,409.23,409.81
04/23/92,411.60,406.86,411.60
04/24/92,412.48,408.74,409.02
04/27/92,409.60,407.64,408.45
04/28/92,409.69,406.33,409.11
04/29/92,412.31,409.11,412.02
04/30/92,414.95,412.03,414.95
05/01/92,415.21,409.87,412.53
05/04/92,417.84,412.54,416.91
05/05/92,418.53,415.77,416.84
05/06/92,418.48,416.40,416.79
05/07/92,416.84,415.38,415.86
05/08/92,416.85,414.41,416.05
05/11/92,418.75,416.05,418.49
05/12/92,418.68,414.69,416.29
05/13/92,417.04,415.86,416.45
05/14/92,416.52,411.82,413.14
05/15/92,413.14,409.85,410.09
05/18/92,413.34,410.13,412.81
05/19/92,416.51,412.26,416.37
05/20/92,416.83,415.37,415.39
05/21/92,415.41,411.57,412.60
05/22/92,414.82,412.60,414.02
05/26/92,414.02,410.23,411.41
05/27/92,412.68,411.06,412.17
05/28/92,416.77,411.81,416.74
05/29/92,418.36,415.35,415.35
06/01/92,417.30,412.44,417.30
06/02/92,417.30,413.50,413.50
06/03/92,416.54,413.06,414.59
06/04/92,414.98,412.97,413.26
06/05/92,413.85,410.97,413.48
06/08/92,413.95,412.03,413.36
06/09/92,413.56,409.30,410.06
06/10/92,410.10,406.81,407.25
06/11/92,409.05,406.11,409.05
06/12/92,411.86,409.08,409.76
06/15/92,411.68,408.13,410.29
06/16/92,411.40,408.32,408.32
06/17/92,408.32,401.98,402.26
06/18/92,402.68,400.51,400.96
06/19/92,404.23,400.96,403.67
06/22/92,403.64,399.92,403.40
06/23/92,405.41,403.40,404.04
06/24/92,404.76,403.26,403.84
06/25/92,405.53,402.01,403.12
06/26/92,403.51,401.94,403.45
06/29/92,408.96,403.47,408.94
06/30/92,409.63,407.85,408.14
07/01/92,412.88,408.20,412.88
07/02/92,415.71,410.07,411.79
07/06/92,413.84,410.46,413.84
07/07/92,415.33,408.58,409.16
07/08/92,410.28,407.20,410.28
07/09/92,414.69,410.26,414.22
07/10/92,415.88,413.34,414.62
07/13/92,415.86,413.93,414.87
07/14/92,417.69,414.33,417.68
07/15/92,417.81,416.29,417.10
07/16/92,417.93,414.79,417.54
07/17/92,417.54,412.97,415.62
07/20/92,415.62,410.72,413.75
07/21/92,414.92,413.10,413.76
07/22/92,413.74,409.95,410.93
07/23/92,412.08,409.81,412.08
07/24/92,412.07,409.93,411.60
07/27/92,412.67,411.27,411.54
07/28/92,417.55,411.55,417.52
07/29/92,423.02,417.52,422.21
07/30/92,423.94,421.57,423.92
07/31/92,424.80,422.46,424.22
08/03/92,425.09,422.84,425.09
08/04/92,425.14,423.10,424.36
08/05/92,424.35,421.92,422.19
08/06/92,422.36,420.26,420.59
08/07/92,423.45,418.51,418.88
08/10/92,419.42,417.05,419.42
08/11/92,419.72,416.53,418.90
08/12/92,419.75,416.43,417.78
08/13/92,419.88,416.40,417.73
08/14/92,420.40,417.74,419.91
08/17/92,421.89,419.44,420.74
08/18/92,421.40,419.78,421.34
08/19/92,421.62,418.19,418.19
08/20/92,418.85,416.93,418.26
08/21/92,420.35,413.58,414.85
08/24/92,414.80,410.07,410.72
08/25/92,411.64,408.30,411.61
08/26/92,413.61,410.53,413.51
08/27/92,415.83,413.51,413.54
08/28/92,414.95,413.38,414.84
08/31/92,415.29,413.76,414.03
09/01/92,416.07,413.35,416.07
09/02/92,418.28,415.31,417.98
09/03/92,420.31,417.49,417.98
09/04/92,418.62,416.76,417.08
09/08/92,417.18,414.30,414.44
09/09/92,416.44,414.44,416.36
09/10/92,420.52,416.34,419.95
09/11/92,420.58,419.14,419.58
09/14/92,425.27,419.65,425.27
09/15/92,425.22,419.54,419.76
09/16/92,422.44,417.77,419.92
09/17/92,421.43,419.62,419.93
09/18/92,422.92,419.92,422.92
09/21/92,422.66,421.18,422.14
09/22/92,422.14,417.13,417.14
09/23/92,417.88,416.00,417.44
09/24/92,419.01,417.46,418.48
09/25/92,418.63,412.71,414.35
09/28/92,416.62,413.00,416.62
09/29/92,417.38,415.34,416.80
09/30/92,418.58,416.67,417.80
10/01/92,418.67,415.46,416.27
10/02/92,416.35,410.45,410.47
10/05/92,410.43,396.80,407.57
10/06/92,408.56,404.84,407.18
10/07/92,408.60,403.91,404.25
10/08/92,408.03,404.29,407.75
10/09/92,407.75,402.42,402.66
10/12/92,407.44,402.66,407.44
10/13/92,410.64,406.83,409.30
10/14/92,411.52,407.86,409.37
10/15/92,411.03,407.92,409.60
10/16/92,411.73,407.43,411.73
10/19/92,414.98,410.66,414.98
10/20/92,417.98,414.49,415.48
10/21/92,416.15,414.54,415.67
10/22/92,416.81,413.10,414.90
10/23/92,416.23,413.68,414.10
10/26/92,418.17,413.71,418.17
10/27/92,419.20,416.97,418.49
10/28/92,420.13,417.56,420.13
10/29/92,421.16,419.83,420.86
10/30/92,421.13,418.54,418.67
11/02/92,422.75,418.12,422.75
11/03/92,422.81,418.59,419.92
11/04/92,421.07,416.63,417.11
11/05/92,418.40,415.58,418.34
11/06/92,418.35,417.01,417.57
11/09/92,420.13,416.79,418.59
11/10/92,419.71,417.99,418.62
11/11/92,422.33,418.40,422.20
11/12/92,423.10,421.70,422.87
11/13/92,422.91,421.04,422.43
11/16/92,422.44,420.35,420.68
11/17/92,420.97,418.31,419.27
11/18/92,423.49,419.24,422.85
11/19/92,423.61,422.50,423.61
11/20/92,426.98,423.61,426.65
11/23/92,426.62,424.95,425.12
11/24/92,429.31,424.83,427.59
11/25/92,429.41,427.58,429.19
11/27/92,431.93,429.17,430.16
11/30/92,431.53,429.36,431.35
12/01/92,431.47,429.07,430.78
12/02/92,430.87,428.61,429.89
12/03/92,430.99,428.80,429.91
12/04/92,432.89,429.74,432.06
12/07/92,435.31,432.06,435.31
12/08/92,436.99,434.68,436.99
12/09/92,436.99,434.03,435.65
12/10/92,433.23,433.00,433.12
12/11/92,434.55,433.34,433.73
12/14/92,435.26,432.83,432.84
12/15/92,433.66,431.92,432.57
12/16/92,434.22,430.88,431.52
12/17/92,435.44,431.46,435.43
12/18/92,441.29,435.46,441.28
12/21/92,441.26,439.65,440.70
12/22/92,441.64,438.25,440.31
